Погода в Мусиевке

Украина / Запорожская область     46°59′09″N   34°40′57″E
темп.,
°C
ветер,
м/с
пор.,
м/с
влажн.,
%
обл.,
%
осадки,
мм/ч
давл.,
гПа
погр.,
м
19 июня, сб
сб1900:00+16в33875 0.0 101736
03:00+15всв34830 0.0 101748
06:00+17св35820 0.0 101793
09:00+23св57700 0.0 1016595
12:00+27всв666026 0.0 10151376
15:00+28в685419 0.0 10141666
18:00+25в71068100 0.2 1014961
21:00+22св5117455 0.8 1014344
20 июня, вс
вс2000:00+20всв61681100 1.1 1012583
03:00+18всв5148145 3.1 1012371
06:00+18всв513814 1.9 1011373
09:00+22вюв7127030 3.2 1012639
12:00+25в78582 0.3 10121085
15:00+26в78512 0.3 10121375
18:00+25вюв576127 0.0 10111141
21:00+20юв347867 0.0 101252
21 июня, пн
пн2100:00+19ююз11814 0.0 101211
03:00+18с228313 0.0 101114
06:00+19ссв248484 0.0 101274
09:00+25св22680 0.0 1011447
12:00+29св21550 0.0 10111112
15:00+31всв22470 0.0 10111630
18:00+31в335360 0.0 10101568
21:00+25в347248 0.0 101187
22 июня, вт
вт2200:00+23св237070 0.0 101044
03:00+22св49774 0.0 1010198
06:00+21в48815 0.0 1010199
09:00+25вюв576752 0.0 1011487
12:00+29вюв5662100 0.0 1011936
15:00+28вюв666499 0.0 10111154
18:00+27вюв566713 0.0 1012969
21:00+22вюв228139 0.0 101216
23 июня, ср
ср2300:00+21всв22714 0.0 101211
03:00+20с22700 0.0 101111
06:00+21с22774 0.0 101238
09:00+26ю0160100 0.0 1013398
12:00+31ююв454774 0.0 10141403
15:00+32вюв2344100 0.0 10131367
18:00+29юз125794 0.0 1013290
21:00+24ююз117394 0.0 101414